Location: Forst
(46.9333°N, 15.4333°E)
Time: 05:19:21
(UTC+00:00)

Lacrosse 5 rocket - Pass Details

Date: 17 April 2021
Orbit: 460 x 634 km, 57.0° (Epoch: 12 May)

Event Time Altitude Azimuth Distance (km) Brightness Sun altitude
Rises 22:51:59 0° 308° (NW) 2,804 5.4 -32.2°
Reaches altitude 10° 22:54:16 10° 315° (NW) 1,929 4.6 -32.2°
Enters shadow 22:55:54 21° 324° (NW) 1,349 3.7 -32.2°
